Lid_Strength_Index
8 8 8 8 7 7 6 6 6 7 7 7 7 6 6 6 6 6 6 6 8 8 8 8 9 9 9 11 11 12 13 13 13 18 17 16 16 15 16 15 15 16 16
8 8 8 8 8 8 7 7 8 7 8 7 8 7 7 6 7 7 7 8 9 9 9 9 9 9 10 10 12 13 13 14 16 18 18 17 17 16 16 16 17 16 17
8 9 8 8 9 8 8 8 9 9 9 9 9 9 8 8 8 8 7 8 9 8 9 9 9 10 11 12 13 13 14 15 16 16 18 17 17 16 17 17 17 17 17
9 9 10 9 9 9 9 9 9 9 9 10 11 9 10 10 9 9 9 9 10 9 10 10 10 11 11 13 14 14 15 15 16 15 17 17 18 17 17 18 18 17 17
10 10 10 9 9 10 10 11 11 11 10 10 11 12 12 13 12 12 12 11 11 11 12 12 12 12 12 13 14 15 15 15 15 16 17 18 18 18 18 17 18 17 17
11 12 11 12 12 12 12 12 12 12 12 12 13 13 14 12 11 10 12 12 13 13 13 14 14 15 13 12 12 13 13 15 16 17 17 18 17 17 17 17 17 18 18
13 13 14 14 14 13 12 12 13 12 13 13 13 14 14 14 11 11 11 13 14 14 14 15 15 15 15 14 13 13 13 12 14 15 17 16 16 15 16 17 16 16 16
14 14 14 13 14 15 15 15 13 14 15 15 16 16 16 15 12 11 11 14 14 14 14 15 15 16 15 15 15 15 15 14 14 14 14 14 14 14 14 14 14 15 16
14 14 14 15 14 15 15 16 17 17 18 18 17 16 15 15 12 11 12 14 15 15 15 15 15 15 14 13 15 16 15 14 12 12 12 12 12 12 12 14 17 17 18
14 14 14 15 15 16 16 17 17 18 17 15 14 14 15 14 13 12 13 15 16 16 15 15 14 14 12 12 15 15 15 15 15 14 14 12 12 12 11 13 14 16 16
15 15 15 15 16 16 18 18 19 18 15 15 16 16 15 15 14 12 13 15 15 16 15 15 14 12 12 12 13 14 14 14 13 14 14 14 14 14 14 14 13 14 16
16 17 18 19 17 17 20 20 21 17 15 16 16 16 16 15 13 12 12 13 13 15 15 15 14 12 11 11 12 12 11 13 14 15 16 16 16 15 15 14 14 14 14
19 15 14 19 18 18 19 20 19 20 16 17 16 16 16 15 14 11 12 12 13 15 14 14 13 11 11 11 11 11 12 14 15 16 16 16 15 15 14 15 15 16 16
17 15 16 18 16 17 17 16 16 17 16 16 16 16 16 16 15 13 13 13 13 14 13 13 12 12 11 11 12 11 12 12 13 14 15 17 16 16 17 17 18 18 19
19 17 16 13 14 14 17 14 14 15 15 15 15 16 16 16 15 13 12 13 13 13 13 13 13 13 14 14 14 13 13 13 13 14 16 17 17 17 17 17 18 19 21
14 13 13 13 13 14 14 12 10 12 12 12 13 14 16 14 12 11 11 11 11 11 12 13 14 13 14 14 14 14 15 16 16 17 18 18 18 17 18 18 18 19 19
13 12 13 13 13 13 14 14 14 12 11 10 10 10 11 11 11 11 10 10 10 11 13 13 14 14 15 15 15 16 18 19 19 18 19 19 18 18 18 18 19 20 21
11 11 12 13 12 13 14 15 15 15 16 16 12 11 11 11 10 10 10 13 16 16 15 16 16 16 17 17 18 21 21 21 21 20 20 21 20 20 21 21 20 22 24
10 11 11 11 12 13 14 16 16 17 18 18 17 17 17 13 13 14 14 17 18 20 20 22 25 26 26 25 24 26 26 25 24 24 24 23 22 23 24 21 22 24 29
11 11 11 12 13 14 15 17 17 19 20 19 20 20 21 21 21 23 23 23 24 26 28 25 29 31 30 30 29 29 29 28 26 26 27 25 24 26 29 31 30 30 31
13 13 14 14 15 15 15 16 17 19 19 19 20 18 17 21 24 26 26 26 26 27 30 31 32 32 33 33 32 31 30 28 30 31 33 34 35 33 33 28 31 31 30
15 15 15 16 17 17 18 18 19 19 20 21 21 18 18 23 24 26 27 29 31 31 33 31 33 33 34 33 34 33 33 34 36 36 35 35 35 34 32 29 28 27 29
16 17 18 18 19 19 19 20 20 21 22 23 23 23 24 25 26 26 28 32 31 30 32 32 32 33 35 36 36 34 33 34 34 35 33 33 33 31 31 29 28 28 27
17 18 19 19 20 20 21 22 22 22 23 23 24 25 25 27 28 28 30 32 31 33 34 34 34 34 35 37 39 39 38 37 38 35 34 32 30 29 30 28 27 26 25
19 20 20 21 21 22 23 23 23 23 24 24 26 25 27 29 29 31 31 32 33 33 33 34 35 35 35 35 36 37 36 27 33 32 33 31 29 29 30 26 26 25 24
21 22 22 22 22 22 23 23 23 24 25 25 26 28 29 27 29 31 33 33 32 33 35 36 36 36 35 33 32 29 28 24 26 25 31 30 29 28 27 25 25 24 24